EW9056 Weather Reports


time (UTC)temp
C
wind
direction
speed
KPH
gust
KPH
rain 1hr
cm
rain 24hr
cm
rain mn
cm
humidity
%
barometer
mb
20260504081558 7 33 8.0 25.7 0.00 0.00 0.00 61 1015.3
20260504044554 12 35 19.3 38.6 0.00 0.00 0.00 38 1011.6
20260504043047 12 25 12.9 27.4 0.00 0.00 0.00 42 1010.9
20260504041543 12 22 1.6 9.7 0.00 0.00 0.00 42 1010.4
20260504040054 12 347 0.0 4.8 0.00 0.00 0.00 40 1010.0
20260504034550 13 2 0.0 4.8 0.00 0.00 0.00 39 1009.8
20260504033035 13 353 1.6 14.5 0.00 0.00 0.00 37 1009.5
20260504031533 14 45 3.2 19.3 0.00 0.00 0.00 36 1009.4
20260504030130 15 24 1.6 17.7 0.00 0.00 0.00 36 1009.1
20260504024526 15 32 4.8 16.1 0.00 0.00 0.00 33 1009.0
20260504023025 16 21 1.6 12.9 0.00 0.00 0.00 30 1009.0
20260504021523 17 2 1.6 14.5 0.00 0.00 0.00 26 1008.9
20260504020018 19 11 0.0 9.7 0.00 0.00 0.00 22 1008.8
20260504014514 20 338 0.0 11.3 0.00 0.00 0.00 20 1008.9
20260504013013 21 328 1.6 16.1 0.00 0.00 0.00 19 1008.9
20260504011510 21 328 0.0 14.5 0.00 0.00 0.00 18 1008.9
20260504010038 22 342 1.6 19.3 0.00 0.00 0.00 18 1009.1
20260504004536 22 342 9.7 24.1 0.00 0.00 0.00 18 1009.0
20260504003034 22 315 4.8 20.9 0.00 0.00 0.00 18 1009.1
20260504001528 22 315 8.0 27.4 0.00 0.00 0.00 18 1009.3
20260504000025 22 310 3.2 20.9 0.00 0.00 0.00 18 1009.4
20260503234523 22 316 3.2 25.7 0.00 0.00 0.00 18 1009.6
20260503233049 22 321 11.3 25.7 0.00 0.00 0.00 18 1009.7
20260503231552 23 304 4.8 27.4 0.00 0.00 0.00 19 1009.8
20260503230043 22 302 11.3 30.6 0.00 0.00 0.00 18 1009.8
20260503224541 23 15 4.8 24.1 0.00 0.00 0.00 18 1009.8
20260503223038 23 301 3.2 24.1 0.00 0.00 0.00 19 1009.9
20260503221542 22 286 4.8 24.1 0.00 0.00 0.00 20 1010.1
20260503220032 22 305 0.0 24.1 0.00 0.00 0.00 19 1010.2
20260503214531 22 319 0.0 20.9 0.00 0.00 0.00 20 1010.3
20260503213034 22 328 0.0 24.1 0.00 0.00 0.00 20 1010.4
20260503211532 22 319 0.0 22.5 0.00 0.00 0.00 19 1010.8
20260503210019 22 294 9.7 22.5 0.00 0.00 0.00 20 1011.1
20260503204516 22 319 4.8 22.5 0.00 0.00 0.00 20 1011.2
20260503201510 22 296 11.3 20.9 0.00 0.00 0.00 21 1011.3
20260503200004 22 302 9.7 24.1 0.00 0.00 0.00 19 1011.5
20260503194600 22 305 0.0 27.4 0.00 0.00 0.00 18 1011.7
20260503193109 21 326 11.3 22.5 0.00 0.00 0.00 19 1011.9
20260503191553 21 318 12.9 25.7 0.00 0.00 0.00 18 1012.2
20260503190059 21 295 0.0 24.1 0.00 0.00 0.00 18 1012.3
20260503184512 21 294 3.2 32.2 0.00 0.00 0.00 19 1012.4
20260503183014 21 266 4.8 24.1 0.00 0.00 0.00 20 1012.5
20260503181501 21 291 1.6 25.7 0.00 0.00 0.00 21 1012.6
20260503180100 21 269 8.0 27.4 0.00 0.00 0.00 19 1012.7
20260503174552 21 278 14.5 25.7 0.00 0.00 0.00 19 1012.9
20260503173108 21 288 1.6 22.5 0.00 0.00 0.00 22 1013.0
20260503171514 21 304 3.2 16.1 0.00 0.00 0.00 23 1013.0
20260503140113 12 290 0.0 6.4 0.00 0.00 0.00 59 1013.5